Date String (YYYY-MM-DD hh:mm:ss) UTC,Instrument flags,Ambient pressure (hPa),Sample flow (lpm),Bypass flow (lpm),Sample temperature (°C),Ambient temperature (°C),ASC tube jacket temperature (°C),LED temperature (°C),Box temperature (°C),Sample RH (%),Span deviation,Mass concentration (μg/m³),Mass concentration (μg/m³),Mass concentration (μg/m³)
DateTimeUTC,F1_M11,P_M11,Q1_M11,Q2_M11,T1_M11,T2_M11,T3_M11,T4_M11,T5_M11,U1_M11,ZSPAN_M11,X0_M11,X2_M11,X1_M11
2022-12-14 02:00:00,,0812.0,4.97,0.00,21.1,21.4,00.0,29.9,23.0,10.5,0001.6,0024.40,0008.51,0006.07
2022-12-14 02:01:00,,0812.0,5.03,0.00,21.2,20.9,00.0,29.9,23.0,10.5,0001.8,0025.42,0008.50,0006.04
2022-12-14 02:02:00,,0812.0,4.98,0.00,21.1,20.4,00.0,29.9,22.9,10.5,0002.1,0025.50,0008.41,0006.00
2022-12-14 02:03:00,,0812.0,5.01,0.00,21.1,20.1,00.0,29.9,22.9,10.5,0002.0,0025.79,0008.37,0005.93
2022-12-14 02:04:00,,0812.0,5.01,0.00,21.1,19.9,00.0,29.9,22.8,10.5,0001.0,0025.86,0008.42,0005.88
2022-12-14 02:05:00,,0812.0,5.00,0.00,21.1,19.7,00.0,29.9,22.8,10.5,0001.7,0025.77,0008.38,0005.84
2022-12-14 02:06:00,,0811.9,5.00,0.00,21.1,19.6,00.0,29.9,22.7,10.5,0002.7,0026.88,0008.31,0005.80
2022-12-14 02:07:00,,0811.8,5.00,0.00,21.1,19.5,00.0,29.9,22.7,10.5,0002.6,0026.76,0008.22,0005.80
2022-12-14 02:08:00,,0811.9,5.00,0.00,21.0,19.4,00.0,29.9,22.7,10.5,0001.7,0026.88,0008.27,0005.80
2022-12-14 02:09:00,,0811.9,5.00,0.00,21.0,19.3,00.0,29.9,22.7,10.5,0001.4,0026.31,0008.23,0005.83
2022-12-14 02:10:00,,0811.8,5.00,0.00,21.0,19.5,00.0,29.9,22.7,10.6,0001.4,0025.43,0008.26,0005.85
2022-12-14 02:11:00,,0811.9,5.02,0.00,21.1,20.8,00.0,29.9,23.0,10.6,0001.3,0025.41,0008.27,0005.86
2022-12-14 02:12:00,,0812.0,4.97,0.00,21.2,21.6,00.0,29.9,23.1,10.5,0001.5,0024.93,0008.27,0005.87
2022-12-14 02:13:00,,0811.9,5.02,0.00,21.3,21.1,00.0,30.0,23.1,10.5,0001.2,0024.55,0008.31,0005.88
2022-12-14 02:14:00,,0811.9,5.00,0.00,21.2,20.6,00.0,30.0,23.0,10.5,0001.1,0024.40,0008.35,0005.91
2022-12-14 02:15:00,,0811.9,4.99,0.00,21.2,20.1,00.0,30.0,22.9,10.5,0001.4,0025.62,0008.36,0005.93
2022-12-14 02:16:00,,0811.9,5.01,0.00,21.2,19.8,00.0,30.0,22.8,10.4,0001.0,0027.48,0008.38,0005.96
2022-12-14 02:17:00,,0811.8,5.01,0.00,21.2,19.5,00.0,30.0,22.8,10.4,0000.7,0028.12,0008.37,0005.97
2022-12-14 02:18:00,,0811.9,5.02,0.00,21.1,19.3,00.0,30.0,22.7,10.4,0000.7,0030.03,0008.48,0005.98
2022-12-14 02:19:00,,0812.0,4.97,0.00,21.1,19.2,00.0,29.9,22.7,10.5,0000.8,0032.41,0008.47,0006.00
2022-12-14 02:20:00,,0811.9,5.04,0.00,21.0,19.1,00.0,29.9,22.6,10.6,0000.6,0033.15,0008.50,0006.00
2022-12-14 02:21:00,,0812.0,4.96,0.00,21.0,19.3,00.0,29.9,22.7,10.6,0001.1,0033.43,0008.54,0006.00
2022-12-14 02:22:00,,0811.9,5.03,0.00,21.1,20.6,00.0,29.9,22.9,10.6,0000.8,0033.48,0008.64,0006.01
2022-12-14 02:23:00,,0811.9,4.98,0.00,21.2,21.6,00.0,29.9,23.1,10.5,0000.6,0033.82,0008.65,0006.00
2022-12-14 02:24:00,,0811.9,4.98,0.00,21.3,21.4,00.0,30.0,23.2,10.5,0000.5,0033.70,0008.67,0006.01
2022-12-14 02:25:00,,0811.8,5.01,0.00,21.3,20.9,00.0,30.0,23.1,10.4,0000.2,0034.51,0008.64,0006.02
2022-12-14 02:26:00,,0811.8,4.99,0.00,21.3,20.4,00.0,30.0,23.1,10.4,-000.2,0034.70,0008.58,0006.01
2022-12-14 02:27:00,,0811.8,5.00,0.00,21.3,20.1,00.0,30.0,23.0,10.4,-000.8,0033.16,0008.61,0006.00
2022-12-14 02:28:00,,0811.9,5.00,0.00,21.3,19.9,00.0,30.0,22.9,10.5,-000.8,0031.45,0008.65,0006.00
2022-12-14 02:29:00,,0811.9,5.00,0.00,21.2,19.7,00.0,30.0,22.9,10.5,-000.5,0030.41,0008.56,0006.00
2022-12-14 02:30:00,,0811.9,5.01,0.00,21.2,19.6,00.0,30.0,22.9,10.5,0000.3,0028.31,0008.50,0006.00
2022-12-14 02:31:00,,0811.9,5.00,0.00,21.2,19.5,00.0,30.0,22.9,10.5,0000.8,0028.61,0008.54,0006.03
2022-12-14 02:32:00,,0811.9,5.00,0.00,21.2,19.5,00.0,30.0,22.9,10.5,0000.6,0029.64,0008.52,0006.05
2022-12-14 02:33:00,,0811.9,5.00,0.00,21.2,19.5,00.0,30.0,22.8,10.5,0000.4,0029.77,0008.46,0006.05
2022-12-14 02:34:00,,0811.8,5.00,0.00,21.2,19.5,00.0,30.0,22.8,10.5,0000.6,0031.15,0008.47,0006.06
2022-12-14 02:35:00,,0811.8,5.00,0.00,21.1,19.5,00.0,30.0,22.9,10.5,0000.7,0030.59,0008.45,0006.08
2022-12-14 02:36:00,,0811.9,5.02,0.00,21.2,20.4,00.0,30.0,23.0,10.4,0000.9,0029.54,0008.44,0006.11
2022-12-14 02:37:00,,0811.9,4.97,0.00,21.3,21.5,00.0,30.0,23.2,10.4,0001.8,0029.37,0008.47,0006.15
2022-12-14 02:38:00,,0811.8,5.04,0.00,21.4,21.8,00.0,30.1,23.4,10.3,0002.7,0029.60,0008.52,0006.21
2022-12-14 02:39:00,,0811.8,4.98,0.00,21.5,21.3,00.0,30.1,23.4,10.3,0002.6,0031.20,0008.61,0006.30
2022-12-14 02:40:00,,0811.8,5.02,0.00,21.5,20.8,00.0,30.1,23.3,10.3,0002.6,0031.04,0008.75,0006.37
2022-12-14 02:41:00,,0811.8,4.98,0.00,21.4,20.4,00.0,30.1,23.2,10.3,0001.8,0031.43,0008.90,0006.42
2022-12-14 02:42:00,,0811.7,5.01,0.00,21.4,20.2,00.0,30.1,23.2,10.3,0001.6,0031.58,0008.98,0006.47
2022-12-14 02:43:00,,0811.8,5.00,0.00,21.4,19.9,00.0,30.1,23.1,10.3,0002.0,0031.67,0009.03,0006.50
2022-12-14 02:44:00,,0811.9,5.01,0.00,21.4,19.8,00.0,30.1,23.1,10.4,0002.0,0032.39,0009.05,0006.54
2022-12-14 02:45:00,,0811.9,5.00,0.00,21.3,19.7,00.0,30.1,23.1,10.4,0001.9,0030.47,0009.03,0006.57
2022-12-14 02:46:00,,0811.8,5.00,0.00,21.3,19.8,00.0,30.1,23.1,10.4,0001.9,0030.16,0009.09,0006.61
2022-12-14 02:47:00,,0811.8,5.01,0.00,21.3,19.8,00.0,30.1,23.1,10.4,0001.7,0030.00,0009.14,0006.62
2022-12-14 02:48:00,,0811.7,5.01,0.00,21.3,19.8,00.0,30.1,23.1,10.4,0000.9,0028.57,0009.23,0006.64
2022-12-14 02:49:00,,0811.7,4.97,0.00,21.3,19.8,00.0,30.1,23.1,10.4,-000.0,0028.66,0009.23,0006.65
2022-12-14 02:50:00,,0811.7,5.01,0.00,21.3,19.8,00.0,30.1,23.1,10.4,-000.5,0027.44,0009.19,0006.63
2022-12-14 02:51:00,,0811.8,5.00,0.00,21.3,19.8,00.0,30.1,23.1,10.4,-000.4,0027.70,0009.13,0006.60
2022-12-14 02:52:00,,0811.7,5.01,0.00,21.3,19.9,00.0,30.1,23.1,10.5,0000.2,0027.20,0009.14,0006.62
2022-12-14 02:53:00,,0811.7,5.02,0.00,21.3,20.5,00.0,30.1,23.2,10.5,-000.0,0027.11,0009.15,0006.61
2022-12-14 02:54:00,,0811.7,4.97,0.00,21.5,21.6,00.0,30.2,23.4,10.5,0000.0,0026.52,0009.10,0006.62
2022-12-14 02:55:00,,0811.7,5.03,0.00,21.6,22.0,00.0,30.2,23.6,10.4,-000.2,0026.32,0009.14,0006.64
2022-12-14 02:56:00,,0811.7,4.98,0.00,21.6,21.7,00.0,30.2,23.6,10.3,-000.1,0027.04,0009.16,0006.66
2022-12-14 02:57:00,,0811.8,5.02,0.00,21.6,21.3,00.0,30.3,23.5,10.4,0000.0,0027.17,0009.20,0006.67
2022-12-14 02:58:00,,0811.7,4.98,0.00,21.6,20.9,00.0,30.3,23.5,10.4,0000.0,0026.99,0009.23,0006.69
2022-12-14 02:59:00,,0811.8,5.01,0.00,21.6,20.7,00.0,30.3,23.4,10.4,0000.0,0026.91,0009.18,0006.70
